SKYNET 4C

Last updated on Sat Aug 15 2026 00:02:56 GMT+0000 (Coordinated Universal Time)

1 20776U 90079A 26226.07064416 -.00000183 00000+0 00000+0 0 9994 2 20776 13.3197 349.4463 0002823 149.7241 217.5391 0.98579165 619
UTC large
Height (km)
Speed (km/s)
/
Latitude / Longitude
Inclination (degrees)
Orbital Period (minutes)
Azimuth
Elevation
Range (km)
Doppler Factor

Next 0 passes for location: London (51.5072 / 0.1276)

No passes found over London.
SKYNET 4C